sat.trackr.live / text

‹ back to catalog

YAOGAN-43 02B

NORAD 60946 · 2024-156B

PAYLOAD ACTIVE UNKNOWN

§ Identity

Operator
Country
PRC
Launch date
2024-09-03
Launch site
XICLF
Launch vehicle
Mass (kg)
RCS (m²)

External: N2YO · Heavens-Above · Gunter

§ Orbital elements

Epoch: 2026-05-24T23:27:00.797184Z

Period
94.55 min
Inclination
34.9954°
Eccentricity
0.0004738
Mean motion
15.22972681 rev/d
Perigee alt
493.6 km
Apogee alt
500.1 km
Semi-major
6,875.0 km
B*
4.1606e-4
RAAN
343.9916°
Arg perigee
289.5924°
Mean anomaly
70.4279°
Rev number
9,590

§ Raw data

YAOGAN-43 02B1 60946U 24156B   26144.97709256  .00009994  00000+0  41606-3 0  99952 60946  34.9954 343.9916 0004738 289.5924  70.4279 15.22972681 95902

JSON: /api/v1/satellites/60946 · /tle

For live sub-satellite position, see the globe view (requires WebGL).

§ Visibility from observer

Set your observer location to see the next 7 days of passes ≥ 10°. The values pass through the URL so the page stays shareable.

No JS? Fill the form by hand. The geolocation button needs JavaScript.